Regional Weather Roundup
Issued by NWS

Home | Current Version | Previous Version | Text Only | Print | Product List | Glossary Off
Versions: 1 2 3 4 5 6 7 8 9 10 11 12 13 14 15 16 17 18 19 20 21 22 23 24 25 26 27 28 29 30 31 32 33 34 35 36 37 38 39 40 41 42 43 44 45 46 47 48 49 50

125
ASUS43 KFSD 220910
RWRSD

WEATHER ROUNDUP FOR SOUTH DAKOTA
NATIONAL WEATHER SERVICE SIOUX FALLS SD
400 AM CDT TUE AUG 22 2017

NOTE: "FAIR" INDICATES FEW OR NO CLOUDS BELOW 12,000 FEET WITH NO
SIGNIFICANT WEATHER AND/OR OBSTRUCTIONS TO VISIBILITY.


SDZ001>005-009-010-012>017-221000-
NORTHWEST AND NORTH CENTRAL SOUTH DAKOTA

CITY           SKY/WX    TMP DP  RH WIND       PRES   REMARKS
BUFFALO          N/A     49  40  71 SW5       30.16R
FAITH            N/A     55  46  71 W3        30.19S
MOBRIDGE       CLEAR     50  45  83 N7        30.13R
$$

SDZ012>016-024>037-041>051-057-063-072>074-221000-
SOUTHWEST AND SOUTH CENTRAL SOUTH DAKOTA

CITY           SKY/WX    TMP DP  RH WIND       PRES   REMARKS
RAPID CTY ARPT CLEAR     48  41  76 NW7       30.22S
PIERRE         CLEAR     56  46  69 W3        30.14R
CUSTER         CLEAR     46  34  62 NW5       30.32S
ELLSWORTH AFB  CLEAR     52  42  68 W5        30.22R
PHILIP         CLEAR     48  45  89 NW5       30.18S
SPEARFISH      FAIR      52  39  62 CALM      30.25S
WINNER         FAIR      57  52  83 W3        30.16S
$$

SDZ004>011-016>023-039-040-221000-
NORTHEAST SOUTH DAKOTA

CITY           SKY/WX    TMP DP  RH WIND       PRES   REMARKS
ABERDEEN       CLEAR     48  45  89 W3        30.10R
WATERTOWN      CLEAR     54  52  93 W6        30.07R
BROOKINGS      CLEAR     53  50  89 NW3       30.09R
SISSETON         N/A     53  50  89 NW7       30.04S
$$

SDZ017-020-022-023-036>040-048>070-221000-
SOUTHEAST SOUTH DAKOTA

CITY           SKY/WX    TMP DP  RH WIND       PRES   REMARKS
SIOUX FALLS    CLEAR     58  55  90 N10       30.08R
HURON          CLEAR     49  48  97 W6        30.11R
CHAMBERLAIN    CLEAR     58  53  85 NW5       30.14S
MITCHELL       CLEAR     54  51  90 NW6       30.11R
YANKTON        CLEAR     60  56  86 NW12      30.10R
$$

ABBREVIATIONS USED IN REMARKS
   TC - TEMPERATURE IN CELSIUS
  WCI - WIND CHILL INDEX
   HX - HEAT INDEX
  VSB - VISIBILITY





USA.gov is the U.S. government's official web portal to all federal, state and local government web resources and services.